QPF
0.01 0.00 0.01 0.01 0.01 0.01 0.01 0.01 0.01 0.00 0.00 0.00 0.00 0.00 0.00 0.00 0.00 0.00 0.00 0.00 0.00 0.00 0.00 0.00 0.00 0.00 0.00 0.00 0.00 0.00 0.00 0.00 0.00 0.00 0.00 0.01 0.01 0.01 0.01 0.01 0.02 0.02 0.02 0.01
0.00 0.00 0.01 0.01 0.01 0.01 0.01 0.01 0.00 0.00 0.00 0.00 0.00 0.00 0.00 0.00 0.00 0.00 0.00 0.00 0.00 0.00 0.00 0.00 0.00 0.00 0.00 0.00 0.00 0.00 0.00 0.00 0.01 0.01 0.01 0.01 0.01 0.01 0.01 0.01 0.02 0.02 0.02 0.01
0.00 0.00 0.00 0.01 0.01 0.01 0.02 0.02 0.02 0.01 0.01 0.00 0.00 0.00 0.00 0.00 0.00 0.00 0.00 0.00 0.00 0.00 0.00 0.00 0.00 0.00 0.00 0.00 0.00 0.00 0.00 0.01 0.01 0.01 0.01 0.01 0.01 0.01 0.01 0.01 0.00 0.01 0.01 0.01
0.00 0.00 0.00 0.00 0.00 0.00 0.02 0.03 0.02 0.02 0.01 0.00 0.00 0.00 0.00 0.00 0.00 0.00 0.00 0.00 0.01 0.01 0.00 0.00 0.00 0.00 0.01 0.01 0.00 0.01 0.01 0.02 0.02 0.01 0.01 0.00 0.00 0.01 0.01 0.00 0.00 0.00 0.00 0.00
0.00 0.00 0.00 0.00 0.00 0.00 0.01 0.03 0.01 0.01 0.01 0.01 0.00 0.00 0.00 0.00 0.00 0.00 0.00 0.01 0.01 0.00 0.00 0.00 0.00 0.00 0.01 0.01 0.00 0.01 0.01 0.02 0.01 0.01 0.01 0.01 0.01 0.00 0.01 0.01 0.00 0.00 0.00 0.00
0.00 0.00 0.00 0.00 0.00 0.00 0.01 0.02 0.01 0.01 0.01 0.01 0.00 0.00 0.00 0.00 0.00 0.00 0.00 0.01 0.01 0.00 0.00 0.00 0.00 0.00 0.01 0.01 0.01 0.01 0.01 0.01 0.01 0.01 0.01 0.01 0.01 0.00 0.00 0.00 0.00 0.00 0.00 0.00
0.00 0.00 0.00 0.00 0.00 0.00 0.01 0.01 0.01 0.01 0.01 0.01 0.00 0.00 0.00 0.00 0.00 0.00 0.00 0.00 0.00 0.00 0.00 0.00 0.00 0.00 0.01 0.01 0.01 0.01 0.01 0.01 0.01 0.01 0.01 0.02 0.01 0.01 0.00 0.00 0.00 0.00 0.00 0.00
0.00 0.01 0.00 0.00 0.00 0.00 0.01 0.01 0.01 0.01 0.01 0.01 0.00 0.00 0.00 0.00 0.00 0.00 0.00 0.00 0.00 0.01 0.01 0.00 0.00 0.00 0.00 0.01 0.01 0.01 0.01 0.01 0.01 0.01 0.01 0.01 0.01 0.01 0.00 0.00 0.00 0.01 0.01 0.01
0.01 0.01 0.01 0.00 0.00 0.00 0.00 0.01 0.01 0.01 0.01 0.01 0.00 0.00 0.00 0.00 0.00 0.00 0.00 0.00 0.01 0.02 0.04 0.03 0.01 0.01 0.01 0.01 0.02 0.02 0.02 0.01 0.01 0.00 0.00 0.01 0.01 0.01 0.00 0.00 0.00 0.01 0.01 0.00
0.00 0.00 0.00 0.00 0.00 0.00 0.00 0.00 0.00 0.00 0.00 0.00 0.00 0.00 0.00 0.00 0.00 0.00 0.00 0.01 0.02 0.04 0.07 0.06 0.02 0.01 0.01 0.00 0.01 0.01 0.02 0.02 0.01 0.01 0.00 0.00 0.00 0.00 0.00 0.00 0.00 0.00 0.00 0.01
0.00 0.00 0.00 0.00 0.00 0.00 0.00 0.00 0.00 0.00 0.00 0.00 0.00 0.00 0.00 0.00 0.00 0.00 0.00 0.00 0.02 0.05 0.06 0.04 0.03 0.03 0.02 0.01 0.01 0.01 0.01 0.01 0.01 0.01 0.01 0.01 0.00 0.00 0.00 0.00 0.00 0.00 0.00 0.00
0.00 0.00 0.00 0.00 0.00 0.00 0.00 0.00 0.00 0.00 0.00 0.01 0.01 0.00 0.00 0.00 0.00 0.00 0.00 0.00 0.01 0.02 0.02 0.03 0.03 0.03 0.02 0.02 0.01 0.01 0.00 0.00 0.00 0.00 0.01 0.01 0.01 0.01 0.01 0.01 0.01 0.01 0.01 0.00
0.00 0.00 0.00 0.00 0.00 0.00 0.00 0.00 0.00 0.00 0.00 0.01 0.01 0.00 0.00 0.00 0.00 0.00 0.00 0.00 0.00 0.00 0.01 0.01 0.01 0.01 0.01 0.00 0.00 0.00 0.00 0.00 0.00 0.00 0.00 0.00 0.00 0.00 0.00 0.01 0.01 0.01 0.01 0.01
0.00 0.00 0.00 0.00 0.00 0.00 0.00 0.00 0.00 0.00 0.01 0.01 0.00 0.00 0.00 0.00 0.00 0.00 0.00 0.00 0.00 0.00 0.00 0.00 0.00 0.00 0.00 0.00 0.00 0.00 0.00 0.00 0.00 0.00 0.01 0.01 0.00 0.01 0.01 0.01 0.01 0.01 0.01 0.01
0.00 0.00 0.00 0.00 0.00 0.00 0.00 0.00 0.00 0.01 0.01 0.00 0.00 0.00 0.00 0.00 0.00 0.00 0.00 0.00 0.00 0.00 0.00 0.00 0.00 0.00 0.01 0.00 0.00 0.00 0.00 0.00 0.00 0.00 0.01 0.01 0.01 0.01 0.01 0.01 0.01 0.01 0.01 0.01
0.00 0.00 0.00 0.00 0.01 0.01 0.01 0.01 0.01 0.01 0.01 0.00 0.00 0.00 0.00 0.00 0.00 0.00 0.00 0.00 0.00 0.00 0.00 0.00 0.00 0.01 0.01 0.01 0.00 0.00 0.00 0.00 0.00 0.00 0.00 0.01 0.01 0.01 0.01 0.01 0.01 0.01 0.01 0.01
0.00 0.00 0.00 0.00 0.01 0.01 0.01 0.02 0.01 0.01 0.01 0.00 0.00 0.01 0.01 0.00 0.00 0.01 0.01 0.00 0.00 0.00 0.00 0.01 0.01 0.01 0.01 0.01 0.01 0.01 0.00 0.00 0.01 0.01 0.01 0.01 0.01 0.01 0.01 0.01 0.01 0.01 0.01 0.01
0.00 0.00 0.00 0.01 0.02 0.02 0.02 0.02 0.02 0.01 0.01 0.01 0.01 0.01 0.01 0.01 0.00 0.01 0.01 0.01 0.01 0.01 0.01 0.01 0.01 0.01 0.01 0.01 0.01 0.01 0.01 0.01 0.01 0.01 0.01 0.01 0.01 0.01 0.01 0.01 0.01 0.01 0.01 0.01
0.01 0.01 0.01 0.02 0.03 0.03 0.02 0.02 0.01 0.01 0.01 0.01 0.01 0.01 0.01 0.01 0.00 0.01 0.01 0.01 0.01 0.01 0.01 0.01 0.01 0.01 0.01 0.01 0.01 0.01 0.01 0.01 0.01 0.01 0.01 0.00 0.00 0.00 0.00 0.01 0.01 0.01 0.01 0.01
0.01 0.01 0.01 0.03 0.03 0.02 0.02 0.01 0.01 0.01 0.01 0.01 0.01 0.01 0.01 0.01 0.01 0.01 0.01 0.01 0.01 0.01 0.00 0.01 0.01 0.01 0.01 0.01 0.01 0.00 0.01 0.01 0.01 0.01 0.01 0.00 0.00 0.00 0.00 0.00 0.00 0.00 0.00 0.01
0.01 0.02 0.03 0.03 0.02 0.02 0.01 0.02 0.02 0.01 0.01 0.01 0.01 0.01 0.01 0.01 0.01 0.01 0.01 0.01 0.01 0.01 0.01 0.01 0.01 0.01 0.01 0.01 0.00 0.00 0.00 0.00 0.00 0.00 0.00 0.00 0.00 0.00 0.01 0.00 0.00 0.00 0.00 0.00
0.02 0.02 0.02 0.03 0.03 0.02 0.02 0.02 0.02 0.02 0.02 0.01 0.01 0.01 0.01 0.02 0.01 0.01 0.01 0.02 0.02 0.02 0.01 0.01 0.01 0.01 0.01 0.01 0.00 0.00 0.00 0.00 0.00 0.00 0.00 0.00 0.00 0.00 0.01 0.01 0.01 0.00 0.00 0.00
0.02 0.03 0.04 0.04 0.03 0.02 0.02 0.02 0.02 0.02 0.02 0.02 0.02 0.02 0.02 0.03 0.02 0.02 0.01 0.01 0.01 0.01 0.01 0.01 0.01 0.01 0.01 0.00 0.01 0.01 0.00 0.00 0.01 0.01 0.01 0.01 0.01 0.00 0.01 0.01 0.01 0.01 0.00 0.00
0.03 0.04 0.04 0.04 0.03 0.02 0.02 0.02 0.01 0.01 0.01 0.01 0.02 0.02 0.02 0.03 0.03 0.03 0.03 0.03 0.02 0.02 0.01 0.01 0.01 0.01 0.01 0.01 0.00 0.00 0.00 0.00 0.01 0.01 0.01 0.01 0.01 0.01 0.01 0.01 0.01 0.01 0.01 0.00
0.03 0.03 0.04 0.03 0.03 0.03 0.03 0.02 0.02 0.02 0.02 0.02 0.02 0.02 0.02 0.03 0.03 0.04 0.04 0.04 0.03 0.02 0.02 0.01 0.01 0.01 0.01 0.01 0.01 0.01 0.00 0.00 0.01 0.01 0.01 0.01 0.01 0.01 0.01 0.01 0.01 0.01 0.00 0.00
0.02 0.03 0.03 0.03 0.03 0.04 0.04 0.04 0.03 0.03 0.03 0.03 0.02 0.02 0.02 0.02 0.02 0.02 0.02 0.02 0.02 0.01 0.01 0.01 0.01 0.01 0.01 0.01 0.00 0.00 0.00 0.00 0.00 0.00 0.00 0.00 0.00 0.01 0.01 0.01 0.00 0.00 0.00 0.00
0.02 0.02 0.02 0.02 0.03 0.04 0.05 0.04 0.04 0.04 0.03 0.03 0.03 0.02 0.03 0.02 0.02 0.02 0.01 0.01 0.00 0.00 0.00 0.00 0.00 0.01 0.01 0.00 0.00 0.00 0.01 0.00 0.00 0.00 0.00 0.00 0.00 0.00 0.00 0.00 0.00 0.00 0.00 0.00
MSLP
1018.92 1018.42 1017.96 1017.54 1017.16 1016.79 1016.40 1015.97 1015.47 1014.90 1014.28 1013.64 1013.02 1012.47 1012.03 1011.72 1011.56 1011.53 1011.63 1011.83 1012.10 1012.42 1012.77 1013.17 1013.60 1014.09 1014.63 1015.24 1015.91 1016.62 1017.34 1018.06 1018.75 1019.39 1019.98 1020.52 1021.01 1021.48 1021.94 1022.39 1022.84 1023.29 1023.73 1024.14
1019.20 1018.61 1018.04 1017.50 1017.00 1016.53 1016.07 1015.59 1015.10 1014.58 1014.03 1013.48 1012.94 1012.44 1012.01 1011.67 1011.42 1011.28 1011.23 1011.28 1011.41 1011.62 1011.91 1012.28 1012.73 1013.27 1013.90 1014.61 1015.37 1016.17 1016.98 1017.78 1018.54 1019.25 1019.91 1020.52 1021.08 1021.63 1022.15 1022.66 1023.16 1023.64 1024.09 1024.50
1019.34 1018.72 1018.09 1017.48 1016.91 1016.37 1015.87 1015.39 1014.92 1014.45 1013.98 1013.50 1013.01 1012.54 1012.10 1011.70 1011.35 1011.06 1010.86 1010.74 1010.72 1010.82 1011.03 1011.37 1011.84 1012.44 1013.14 1013.94 1014.81 1015.70 1016.60 1017.48 1018.31 1019.09 1019.81 1020.49 1021.12 1021.72 1022.29 1022.85 1023.38 1023.88 1024.33 1024.73
1019.40 1018.78 1018.14 1017.52 1016.92 1016.37 1015.87 1015.41 1014.98 1014.56 1014.14 1013.71 1013.26 1012.79 1012.30 1011.82 1011.34 1010.91 1010.54 1010.26 1010.09 1010.07 1010.21 1010.52 1011.00 1011.64 1012.42 1013.30 1014.26 1015.25 1016.24 1017.19 1018.09 1018.93 1019.71 1020.43 1021.10 1021.74 1022.35 1022.93 1023.48 1023.98 1024.43 1024.82
1019.43 1018.84 1018.22 1017.62 1017.05 1016.52 1016.04 1015.62 1015.23 1014.86 1014.48 1014.08 1013.64 1013.14 1012.60 1012.01 1011.41 1010.83 1010.29 1009.86 1009.55 1009.42 1009.49 1009.77 1010.25 1010.93 1011.77 1012.74 1013.78 1014.85 1015.91 1016.93 1017.89 1018.78 1019.59 1020.34 1021.04 1021.70 1022.32 1022.91 1023.46 1023.96 1024.41 1024.79
1019.43 1018.89 1018.32 1017.76 1017.23 1016.75 1016.32 1015.94 1015.59 1015.26 1014.91 1014.53 1014.07 1013.54 1012.93 1012.25 1011.53 1010.80 1010.13 1009.55 1009.13 1008.90 1008.91 1009.15 1009.64 1010.35 1011.24 1012.27 1013.37 1014.51 1015.64 1016.71 1017.72 1018.64 1019.48 1020.25 1020.96 1021.62 1022.24 1022.83 1023.37 1023.86 1024.30 1024.68
1019.40 1018.90 1018.38 1017.88 1017.41 1016.98 1016.60 1016.26 1015.96 1015.65 1015.32 1014.94 1014.47 1013.90 1013.22 1012.46 1011.63 1010.80 1010.00 1009.32 1008.80 1008.50 1008.45 1008.68 1009.16 1009.89 1010.81 1011.89 1013.05 1014.24 1015.41 1016.53 1017.57 1018.52 1019.38 1020.17 1020.88 1021.54 1022.15 1022.72 1023.25 1023.73 1024.16 1024.55
1019.29 1018.82 1018.35 1017.90 1017.48 1017.10 1016.77 1016.48 1016.20 1015.92 1015.60 1015.22 1014.73 1014.12 1013.40 1012.57 1011.67 1010.76 1009.89 1009.13 1008.55 1008.20 1008.11 1008.32 1008.80 1009.53 1010.48 1011.58 1012.78 1014.01 1015.22 1016.37 1017.44 1018.41 1019.29 1020.09 1020.80 1021.46 1022.06 1022.62 1023.14 1023.62 1024.05 1024.45
1019.07 1018.62 1018.18 1017.76 1017.38 1017.04 1016.75 1016.48 1016.23 1015.97 1015.66 1015.27 1014.77 1014.14 1013.39 1012.53 1011.59 1010.64 1009.73 1008.94 1008.33 1007.95 1007.85 1008.04 1008.52 1009.25 1010.21 1011.32 1012.54 1013.79 1015.02 1016.20 1017.29 1018.29 1019.19 1020.00 1020.72 1021.38 1021.99 1022.55 1023.07 1023.55 1023.99 1024.39
1018.74 1018.28 1017.85 1017.45 1017.09 1016.77 1016.50 1016.25 1016.01 1015.76 1015.45 1015.06 1014.55 1013.92 1013.16 1012.29 1011.36 1010.41 1009.50 1008.70 1008.09 1007.72 1007.62 1007.81 1008.28 1009.01 1009.97 1011.08 1012.30 1013.55 1014.80 1015.99 1017.10 1018.12 1019.04 1019.87 1020.61 1021.29 1021.91 1022.48 1023.01 1023.50 1023.95 1024.38
1018.31 1017.83 1017.38 1016.98 1016.62 1016.31 1016.04 1015.79 1015.55 1015.29 1014.98 1014.59 1014.08 1013.46 1012.71 1011.87 1010.96 1010.04 1009.17 1008.41 1007.83 1007.48 1007.39 1007.59 1008.06 1008.79 1009.73 1010.83 1012.03 1013.28 1014.52 1015.72 1016.84 1017.88 1018.82 1019.67 1020.44 1021.14 1021.78 1022.38 1022.93 1023.44 1023.91 1024.35
1017.85 1017.33 1016.86 1016.43 1016.06 1015.73 1015.44 1015.17 1014.92 1014.64 1014.31 1013.91 1013.41 1012.80 1012.08 1011.28 1010.42 1009.56 1008.75 1008.05 1007.53 1007.22 1007.17 1007.38 1007.85 1008.57 1009.48 1010.56 1011.74 1012.96 1014.18 1015.37 1016.49 1017.53 1018.49 1019.36 1020.16 1020.89 1021.56 1022.18 1022.76 1023.30 1023.80 1024.26
1017.42 1016.86 1016.35 1015.89 1015.48 1015.11 1014.79 1014.49 1014.20 1013.89 1013.54 1013.12 1012.62 1012.02 1011.34 1010.59 1009.80 1009.01 1008.28 1007.66 1007.20 1006.95 1006.94 1007.17 1007.65 1008.35 1009.24 1010.28 1011.41 1012.60 1013.79 1014.95 1016.06 1017.10 1018.06 1018.94 1019.76 1020.51 1021.21 1021.87 1022.48 1023.04 1023.57 1024.05
1017.06 1016.47 1015.92 1015.42 1014.96 1014.55 1014.17 1013.82 1013.48 1013.12 1012.73 1012.29 1011.78 1011.20 1010.55 1009.85 1009.13 1008.42 1007.78 1007.25 1006.87 1006.69 1006.72 1006.98 1007.46 1008.15 1009.01 1010.00 1011.09 1012.22 1013.36 1014.48 1015.56 1016.57 1017.53 1018.42 1019.24 1020.02 1020.74 1021.42 1022.06 1022.66 1023.21 1023.72
1016.80 1016.18 1015.59 1015.04 1014.53 1014.06 1013.62 1013.21 1012.80 1012.39 1011.96 1011.49 1010.97 1010.39 1009.77 1009.13 1008.47 1007.85 1007.30 1006.86 1006.57 1006.45 1006.54 1006.82 1007.31 1007.98 1008.80 1009.75 1010.78 1011.85 1012.93 1014.00 1015.03 1016.01 1016.94 1017.82 1018.64 1019.42 1020.16 1020.87 1021.53 1022.16 1022.75 1023.29
1016.58 1015.94 1015.32 1014.73 1014.17 1013.64 1013.14 1012.66 1012.19 1011.72 1011.23 1010.73 1010.19 1009.62 1009.03 1008.43 1007.85 1007.31 1006.85 1006.50 1006.30 1006.25 1006.39 1006.71 1007.20 1007.85 1008.64 1009.54 1010.50 1011.51 1012.53 1013.53 1014.51 1015.45 1016.34 1017.20 1018.01 1018.79 1019.54 1020.26 1020.94 1021.60 1022.22 1022.79
1016.35 1015.69 1015.05 1014.42 1013.81 1013.23 1012.67 1012.12 1011.59 1011.06 1010.53 1009.99 1009.44 1008.88 1008.32 1007.78 1007.26 1006.81 1006.44 1006.18 1006.06 1006.09 1006.28 1006.63 1007.13 1007.78 1008.53 1009.38 1010.29 1011.23 1012.18 1013.12 1014.04 1014.93 1015.79 1016.61 1017.41 1018.18 1018.93 1019.66 1020.36 1021.04 1021.69 1022.30
1016.01 1015.34 1014.68 1014.02 1013.38 1012.75 1012.13 1011.53 1010.94 1010.37 1009.80 1009.24 1008.68 1008.14 1007.62 1007.13 1006.69 1006.32 1006.04 1005.88 1005.84 1005.95 1006.19 1006.58 1007.10 1007.74 1008.47 1009.28 1010.13 1011.01 1011.90 1012.78 1013.64 1014.49 1015.31 1016.11 1016.89 1017.65 1018.40 1019.14 1019.85 1020.56 1021.23 1021.88
1015.50 1014.83 1014.15 1013.47 1012.79 1012.12 1011.46 1010.82 1010.19 1009.58 1008.99 1008.42 1007.87 1007.35 1006.88 1006.45 1006.10 1005.82 1005.64 1005.57 1005.63 1005.81 1006.12 1006.55 1007.10 1007.74 1008.45 1009.22 1010.03 1010.86 1011.70 1012.53 1013.35 1014.15 1014.94 1015.72 1016.48 1017.24 1017.99 1018.73 1019.47 1020.19 1020.90 1021.58
1014.82 1014.13 1013.43 1012.73 1012.02 1011.32 1010.63 1009.95 1009.30 1008.66 1008.06 1007.49 1006.96 1006.49 1006.07 1005.72 1005.45 1005.27 1005.20 1005.24 1005.40 1005.67 1006.05 1006.53 1007.10 1007.75 1008.46 1009.21 1009.99 1010.78 1011.57 1012.36 1013.14 1013.92 1014.68 1015.44 1016.20 1016.95 1017.71 1018.47 1019.22 1019.96 1020.70 1021.41
1013.99 1013.29 1012.58 1011.85 1011.12 1010.39 1009.67 1008.96 1008.27 1007.62 1007.01 1006.45 1005.96 1005.52 1005.17 1004.90 1004.73 1004.67 1004.71 1004.86 1005.12 1005.49 1005.95 1006.49 1007.11 1007.78 1008.50 1009.24 1009.99 1010.75 1011.51 1012.27 1013.02 1013.76 1014.51 1015.27 1016.02 1016.79 1017.56 1018.33 1019.10 1019.87 1020.63 1021.38
1013.12 1012.41 1011.68 1010.92 1010.16 1009.40 1008.64 1007.90 1007.18 1006.51 1005.90 1005.34 1004.87 1004.49 1004.20 1004.02 1003.95 1003.99 1004.15 1004.42 1004.80 1005.27 1005.82 1006.44 1007.11 1007.81 1008.54 1009.28 1010.02 1010.76 1011.49 1012.22 1012.95 1013.68 1014.42 1015.17 1015.93 1016.71 1017.50 1018.30 1019.10 1019.89 1020.68 1021.45
1012.32 1011.59 1010.84 1010.05 1009.25 1008.44 1007.64 1006.86 1006.11 1005.41 1004.77 1004.22 1003.76 1003.42 1003.19 1003.09 1003.12 1003.27 1003.55 1003.94 1004.44 1005.02 1005.67 1006.36 1007.09 1007.84 1008.59 1009.33 1010.07 1010.79 1011.50 1012.21 1012.92 1013.64 1014.37 1015.13 1015.90 1016.70 1017.51 1018.34 1019.17 1020.00 1020.82 1021.61
1011.69 1010.94 1010.16 1009.34 1008.49 1007.64 1006.78 1005.94 1005.13 1004.39 1003.72 1003.15 1002.70 1002.38 1002.20 1002.17 1002.28 1002.54 1002.93 1003.44 1004.05 1004.74 1005.48 1006.26 1007.05 1007.85 1008.62 1009.38 1010.12 1010.83 1011.53 1012.22 1012.91 1013.62 1014.36 1015.12 1015.91 1016.73 1017.57 1018.43 1019.30 1020.16 1021.01 1021.83
1011.27 1010.51 1009.70 1008.84 1007.95 1007.03 1006.11 1005.20 1004.33 1003.53 1002.82 1002.21 1001.75 1001.44 1001.29 1001.31 1001.49 1001.83 1002.32 1002.93 1003.65 1004.44 1005.27 1006.13 1006.99 1007.83 1008.64 1009.41 1010.15 1010.86 1011.55 1012.23 1012.92 1013.62 1014.36 1015.13 1015.94 1016.79 1017.67 1018.57 1019.47 1020.37 1021.25 1022.10
1011.06 1010.29 1009.46 1008.57 1007.63 1006.65 1005.66 1004.69 1003.75 1002.88 1002.11 1001.46 1000.97 1000.65 1000.51 1000.56 1000.79 1001.20 1001.76 1002.46 1003.26 1004.14 1005.05 1005.98 1006.89 1007.78 1008.62 1009.41 1010.16 1010.87 1011.55 1012.23 1012.92 1013.63 1014.38 1015.17 1016.00 1016.88 1017.80 1018.73 1019.68 1020.62 1021.54 1022.41
1010.99 1010.22 1009.38 1008.46 1007.48 1006.46 1005.42 1004.38 1003.38 1002.45 1001.62 1000.93 1000.40 1000.06 999.92 999.98 1000.24 1000.68 1001.30 1002.05 1002.91 1003.85 1004.82 1005.80 1006.76 1007.68 1008.54 1009.36 1010.12 1010.84 1011.53 1012.22 1012.92 1013.65 1014.41 1015.23 1016.10 1017.01 1017.97 1018.95 1019.93 1020.91 1021.85 1022.75
Thickness
5699 5700 5699 5698 5698 5700 5700 5705 5702 5708 5711 5719 5721 5722 5723 5724 5723 5722 5721 5720 5719 5717 5716 5713 5711 5710 5709 5706 5704 5701 5698 5695 5693 5693 5690 5688 5687 5685 5684 5682 5681 5681 5679 5677
5688 5692 5693 5691 5696 5698 5698 5701 5703 5705 5708 5722 5723 5723 5722 5721 5720 5718 5717 5718 5718 5717 5716 5713 5712 5710 5708 5705 5704 5701 5698 5695 5693 5691 5688 5686 5685 5684 5682 5680 5679 5678 5676 5675
5680 5686 5683 5683 5697 5698 5699 5704 5704 5700 5709 5717 5714 5714 5717 5718 5717 5716 5716 5716 5716 5717 5715 5714 5713 5711 5707 5705 5703 5700 5698 5695 5691 5689 5686 5685 5683 5681 5679 5678 5676 5675 5674 5673
5674 5673 5663 5693 5705 5702 5699 5702 5706 5707 5709 5710 5711 5714 5717 5718 5716 5715 5714 5714 5714 5715 5714 5714 5712 5710 5708 5705 5702 5699 5696 5693 5690 5688 5685 5683 5681 5679 5677 5677 5674 5672 5671 5670
5665 5663 5671 5686 5694 5695 5691 5694 5704 5703 5704 5706 5709 5711 5713 5716 5715 5714 5713 5713 5713 5714 5713 5713 5710 5708 5705 5702 5700 5696 5693 5691 5689 5686 5683 5681 5678 5677 5676 5674 5672 5670 5669 5667
5658 5653 5656 5680 5692 5696 5691 5686 5702 5701 5700 5700 5700 5699 5706 5712 5710 5710 5709 5710 5710 5710 5711 5709 5707 5705 5702 5699 5696 5693 5691 5689 5688 5685 5682 5679 5678 5676 5674 5672 5670 5668 5666 5665
5652 5651 5664 5681 5683 5684 5672 5683 5695 5697 5697 5696 5696 5701 5706 5707 5705 5705 5704 5704 5705 5705 5704 5703 5703 5700 5697 5695 5693 5692 5689 5687 5684 5682 5680 5678 5676 5673 5671 5669 5667 5665 5664 5662
5649 5645 5656 5674 5673 5671 5679 5689 5689 5690 5693 5693 5694 5696 5698 5698 5698 5698 5697 5697 5698 5697 5697 5697 5697 5695 5693 5690 5690 5688 5685 5682 5680 5678 5676 5674 5671 5669 5668 5666 5663 5662 5660 5659
5654 5657 5666 5670 5671 5673 5677 5679 5681 5683 5685 5687 5686 5687 5689 5690 5690 5691 5691 5691 5691 5690 5690 5690 5690 5689 5687 5685 5684 5682 5680 5677 5676 5674 5672 5671 5668 5665 5663 5661 5660 5659 5657 5655
5646 5653 5657 5659 5662 5664 5667 5670 5674 5676 5677 5679 5679 5680 5681 5682 5683 5683 5684 5684 5684 5683 5683 5683 5683 5682 5681 5680 5678 5677 5675 5673 5671 5670 5668 5667 5664 5662 5660 5658 5656 5654 5653 5651
5640 5646 5647 5651 5653 5656 5658 5662 5665 5667 5670 5670 5672 5672 5673 5674 5675 5676 5677 5677 5677 5677 5676 5676 5676 5675 5674 5674 5673 5672 5671 5669 5667 5665 5664 5661 5658 5656 5655 5654 5653 5649 5648 5647
5634 5641 5642 5644 5648 5649 5649 5652 5656 5658 5660 5663 5664 5665 5666 5667 5667 5668 5669 5670 5669 5669 5668 5670 5669 5668 5668 5668 5668 5668 5666 5664 5662 5660 5657 5655 5653 5649 5645 5645 5642 5640 5639 5638
5631 5634 5635 5637 5639 5641 5643 5646 5649 5651 5653 5654 5656 5658 5658 5658 5659 5660 5661 5662 5662 5661 5661 5662 5662 5661 5661 5661 5662 5662 5661 5659 5656 5654 5652 5650 5648 5646 5643 5638 5634 5632 5631 5629
5621 5623 5624 5627 5630 5634 5636 5639 5641 5643 5644 5646 5648 5650 5650 5650 5651 5651 5651 5653 5653 5653 5653 5654 5654 5653 5654 5654 5655 5655 5655 5652 5650 5648 5646 5645 5643 5641 5639 5637 5633 5630 5625 5622
5613 5616 5619 5621 5624 5626 5628 5630 5630 5632 5634 5636 5638 5640 5641 5641 5641 5642 5642 5643 5644 5644 5645 5645 5645 5645 5646 5646 5647 5647 5646 5645 5643 5641 5639 5638 5637 5635 5633 5631 5629 5626 5622 5617
5606 5608 5611 5612 5614 5616 5619 5620 5621 5623 5625 5627 5629 5630 5632 5632 5633 5633 5633 5633 5634 5635 5635 5636 5636 5636 5637 5638 5638 5638 5637 5634 5633 5633 5632 5631 5629 5627 5625 5623 5621 5619 5616 5612
5597 5599 5602 5604 5606 5608 5610 5612 5614 5616 5617 5618 5619 5620 5621 5622 5623 5624 5624 5624 5624 5626 5627 5627 5627 5628 5628 5629 5630 5629 5629 5627 5624 5625 5625 5623 5621 5619 5618 5615 5613 5611 5608 5605
5593 5595 5598 5600 5601 5600 5602 5604 5606 5607 5608 5608 5609 5611 5612 5614 5615 5615 5615 5615 5616 5617 5618 5618 5618 5619 5619 5620 5620 5620 5620 5619 5618 5617 5616 5614 5612 5611 5609 5607 5605 5602 5599 5595
5585 5587 5589 5591 5592 5592 5594 5595 5597 5598 5598 5599 5600 5601 5603 5604 5606 5606 5607 5607 5608 5608 5609 5609 5607 5609 5610 5610 5610 5610 5611 5610 5609 5608 5606 5603 5602 5602 5600 5598 5596 5593 5590 5587
5577 5579 5581 5582 5583 5584 5585 5587 5588 5588 5588 5589 5590 5591 5592 5594 5596 5597 5597 5598 5599 5600 5600 5599 5599 5600 5600 5601 5599 5602 5601 5601 5600 5599 5597 5595 5593 5592 5591 5589 5587 5584 5582 5579
5570 5571 5572 5573 5574 5575 5576 5578 5578 5579 5580 5580 5581 5582 5583 5584 5586 5587 5588 5588 5589 5588 5588 5588 5590 5590 5591 5590 5589 5591 5591 5591 5590 5589 5587 5586 5584 5583 5581 5579 5577 5575 5573 5570
5563 5563 5564 5565 5566 5567 5568 5569 5569 5570 5570 5571 5572 5573 5573 5574 5575 5576 5577 5578 5578 5577 5578 5579 5580 5580 5580 5579 5580 5581 5581 5581 5580 5579 5577 5576 5575 5573 5572 5570 5568 5566 5564 5561
5555 5556 5557 5557 5558 5558 5559 5559 5560 5561 5561 5562 5563 5564 5565 5566 5566 5567 5567 5568 5568 5568 5569 5570 5570 5569 5568 5569 5570 5571 5571 5571 5570 5569 5568 5566 5565 5564 5562 5560 5558 5556 5554 5552
5546 5547 5548 5548 5548 5549 5549 5550 5550 5551 5552 5553 5555 5555 5556 5556 5557 5557 5558 5557 5557 5558 5559 5559 5558 5558 5557 5559 5560 5560 5561 5561 5560 5560 5558 5557 5556 5554 5553 5551 5549 5547 5546 5543
5537 5537 5538 5539 5539 5540 5540 5541 5542 5542 5543 5544 5545 5546 5547 5548 5549 5549 5549 5548 5548 5548 5549 5549 5548 5548 5549 5550 5550 5551 5551 5551 5551 5550 5549 5548 5546 5545 5544 5543 5541 5539 5537 5535
5527 5527 5528 5529 5529 5530 5531 5532 5533 5533 5534 5535 5536 5537 5538 5538 5539 5539 5539 5539 5539 5538 5540 5540 5539 5539 5540 5540 5541 5541 5541 5541 5540 5540 5539 5538 5537 5536 5535 5534 5532 5531 5529 5527
5518 5518 5519 5519 5519 5521 5522 5523 5524 5525 5526 5528 5528 5528 5529 5530 5530 5530 5530 5530 5530 5531 5531 5531 5531 5531 5531 5531 5531 5531 5532 5532 5531 5531 5530 5530 5529 5528 5527 5526 5524 5522 5520 5519